Location: Kimberly
(42.5380°N, 114.3640°W)
Time: 13:22:51
(UTC-06:00)

ISS - Visible Passes

Search period start: 22 September 2018 00:00
Search period end: 02 October 2018 00:00
Orbit: 403 x 408 km, 51.6° (Epoch: 23 September)

Date Brightness Start Highest point End Pass type
(mag) Time Alt. Az. Time Alt. Az. Time Alt. Az.
22 Sep -2.3 20:07:24 10° S 20:09:56 21° SE 20:12:29 10° E visible
22 Sep -2.2 21:43:00 10° WSW 21:45:13 35° W 21:45:13 35° W visible
23 Sep -3.9 20:51:01 10° SW 20:54:18 89° NW 20:55:53 28° NE visible
23 Sep -0.2 22:28:31 10° WNW 22:28:35 10° WNW 22:28:35 10° WNW visible
24 Sep -3.5 19:59:17 10° SW 20:02:28 49° SE 20:05:40 10° ENE visible
24 Sep -2.0 21:36:10 10° W 21:39:04 29° NNW 21:39:04 29° NNW visible
25 Sep -2.7 20:43:54 10° W 20:47:04 42° NNW 20:49:25 16° NE visible
25 Sep -0.3 22:21:52 10° NW 22:22:06 11° NW 22:22:06 11° NW visible
26 Sep -3.6 19:51:48 10° WSW 19:55:05 71° NNW 19:58:23 10° NE visible
26 Sep -1.6 21:29:28 10° WNW 21:32:02 20° NNW 21:32:20 20° N visible
27 Sep -1.9 20:37:04 10° WNW 20:39:53 26° NNW 20:42:28 11° NE visible
27 Sep -0.3 22:15:00 10° NW 22:15:09 11° NW 22:15:09 11° NW visible
28 Sep -1.4 21:22:43 10° NW 21:24:59 17° N 21:25:13 17° N visible
29 Sep -1.5 20:30:19 10° WNW 20:32:46 19° N 20:35:13 10° NE visible
29 Sep -0.4 22:07:45 10° NW 22:07:55 11° NW 22:07:55 11° NW visible
30 Sep -1.5 21:15:41 10° NW 21:17:53 17° N 21:17:53 17° N visible
01 Oct -1.5 20:23:26 10° NW 20:25:40 17° N 20:27:52 10° NE visible
01 Oct -0.5 22:00:14 10° NW 22:00:31 12° NW 22:00:31 12° NW visible
